Regional Weather Roundup
Issued by NWS

Home | Current Version | Previous Version | Graphics & Text | Print | Product List | Glossary On
Versions: 1 2 3 4 5 6 7 8 9 10 11 12 13 14 15 16 17 18 19 20 21 22 23 24 25 26 27 28 29 30 31 32 33 34 35 36 37 38 39 40 41 42 43 44 45 46 47 48 49 50
175
ASUS45 KSLC 260310
RWRUT

UTAH REGIONAL WEATHER ROUNDUP
NATIONAL WEATHER SERVICE SALT LAKE CITY UT
900 PM MDT MON SEP 25 2017

UTZ001>011-023>025-260400-

NORTHERN UTAH

CITY           SKY/WX    TMP DP  RH WIND       PRES   REMARKS
BRIGHAM CITY   CLEAR     52  32  45 SE5       30.13S
HILL AFB       CLEAR     49  33  54 E3        30.13R
LOGAN          PTCLDY    50  39  66 CALM      30.14R
OGDEN          CLEAR     49  34  56 CALM      30.12R
SALT LAKE CITY CLEAR     51  37  58 N8        30.12R
TOOELE VALLEY  CLEAR     43  36  75 SE7       30.13R
WENDOVER       CLEAR     51  35  54 W3        30.12R
HEBER CITY     CLEAR     39  32  75 E5        30.12R
WEST JORDAN    CLEAR     47  37  68 W8        30.13R

$$

UTZ011>015-024>027-260400-

CENTRAL/NORTHEAST UTAH

CITY           SKY/WX    TMP DP  RH WIND       PRES   REMARKS
PROVO AIRPORT  CLEAR     51  35  54 NW12      30.12R
MOAB/CANYONLAN CLEAR     51  22  31 W5        30.01R
DELTA          CLEAR     48  32  53 N9        30.11R
PRICE          CLOUDY    49  32  52 N7        30.09R
ROOSEVELT      CLEAR     46  37  71 NW7       30.13R
VERNAL         CLEAR     46  37  71 N7        30.11R

$$

UTZ013>016-019>022-027-260400-

SOUTHERN UTAH

CITY           SKY/WX    TMP DP  RH WIND       PRES   REMARKS
BRYCE CANYON   CLEAR     42  28  57 NE7       30.13R
CEDAR CITY     CLEAR     49  32  52 NE12      30.08R
MILFORD        CLEAR     44  34  67 N6        30.09R
ST GEORGE      CLEAR     67  30  25 NE22G28   29.91R
HANKSVILLE     CLEAR     50  25  37 CALM      30.05R
BLANDING         N/A     54  22  29 NE6       30.12R

$$

REGIONAL REPORTS     COLORADO/ARIZONA

CITY           SKY/WX    TMP DP  RH WIND       PRES   REMARKS
CRAIG, CO      CLEAR     39  27  62 CALM      30.15R
GRAND JUNCTION CLEAR     52  27  38 SW3       30.03R
RIFLE, CO      CLEAR     52  30  43 NW6       30.08R
MONTROSE, CO   CLEAR     47  34  60 S5        30.08R
CORTEZ, CO     CLOUDY    47  32  56 E6        30.05R
PAGE, AZ       CLEAR     60  25  26 CALM      29.97R
GRAND CANYON   CLEAR     38  14  37 CALM      30.06R
KINGMAN, AZ    CLEAR     61  26  26 E8        29.91R
FLAGSTAFF, AZ  PTCLDY    45  12  26 NE5       30.06R

$$

REGIONAL REPORTS    NEVADA/IDAHO/WYOMING

CITY           SKY/WX    TMP DP  RH WIND       PRES   REMARKS
LAS VEGAS, NV  MOCLDY    74  26  16 N6        29.87R
ELY, NY        CLEAR     45  28  51 N12       30.12R
ELKO, NV       PTCLDY    50  32  50 CALM      30.10R
POCATELLO, ID  CLOUDY    51  37  58 S5        30.13S
BURLEY, ID     PTCLDY    45  37  73 CALM      30.10R
FORT BRIDGER,  CLEAR     39  30  70 NW3       30.21R
EVANSTON, WY   CLOUDY    40  32  73 N7        30.18R
ROCK SPRINGS,  CLOUDY    41  30  65 W9        30.16R

$$




USA.gov is the U.S. government's official web portal to all federal, state and local government web resources and services.